{"data":{"norad_id":54859,"intl_designator":"2022-177AR","name":"STARLINK-5409","alt_names":[],"object_type":"PAYLOAD","status":"ACTIVE","operator":null,"country":"US","launch_date":"2022-12-28","launch_site_code":"AFETR","launch_vehicle":null,"mission":null,"orbit_class":"UNKNOWN","rcs_meters":null,"size_class":null,"mass_kg":null,"dimensions":null,"purposes":["comms"],"wikipedia_slug":null,"has_3d_model":false,"image_url":null,"decayed_at":null,"tle_current":{"epoch":"2026-09-20T21:30:18.885888Z","epoch_age_seconds":59125,"freshness":"FRESH","line1":"1 54859U 22177AR  26263.89605192  .00000931  00000+0  43376-4 0  9998","line2":"2 54859  43.0018  99.2649 0001262 257.7069 102.3641 15.27565550206944","mean_motion":15.2756555,"eccentricity":0.0001262,"inclination_deg":43.0018,"raan_deg":99.2649,"arg_perigee_deg":257.7069,"mean_anomaly_deg":102.3641,"bstar":4.3376e-5,"rev_number":20694,"period_min":94.267640429571,"perigee_km":482.22647773325,"apogee_km":483.95825202494,"semimajor_km":6861.2293648791,"source":"CELESTRAK","updated_at":"2026-09-21T09:00:33.159559Z"}}}